| time (UTC) | temp C | wind direction | speed KPH | gust KPH | rain 1hr cm | rain 24hr cm | rain mn cm | humidity % | barometer mb |
| 20260506201513 | 15 | 268 | 0.0 | 12.9 | 0.08 | 0.66 | 0.66 | 93 | 1003.8 |
| 20260506200007 | 15 | 253 | 1.6 | 11.3 | 0.18 | 0.66 | 0.66 | 93 | 1004.0 |
| 20260506194507 | 15 | 213 | 1.6 | 9.7 | 0.18 | 0.64 | 0.64 | 93 | 1004.2 |
| 20260506193005 | 16 | 166 | 3.2 | 11.3 | 0.20 | 0.61 | 0.61 | 93 | 1004.3 |
| 20260506191507 | 16 | 191 | 1.6 | 8.0 | 0.23 | 0.58 | 0.58 | 92 | 1004.3 |
| 20260506190002 | 16 | 226 | 3.2 | 9.7 | 0.13 | 0.48 | 0.48 | 92 | 1004.4 |
| 20260506184504 | 16 | 200 | 1.6 | 8.0 | 0.13 | 0.46 | 0.46 | 92 | 1004.4 |
| 20260506183002 | 16 | 230 | 1.6 | 12.9 | 0.10 | 0.41 | 0.41 | 91 | 1004.4 |
| 20260506181604 | 16 | 155 | 3.2 | 12.9 | 0.08 | 0.36 | 0.36 | 91 | 1004.5 |
| 20260506180058 | 16 | 204 | 0.0 | 4.8 | 0.10 | 0.36 | 0.36 | 91 | 1004.6 |
| 20260506174557 | 16 | 207 | 3.2 | 8.0 | 0.15 | 0.33 | 0.33 | 90 | 1004.7 |
| 20260506173104 | 16 | 171 | 3.2 | 8.0 | 0.20 | 0.30 | 0.30 | 90 | 1004.8 |
| 20260506171555 | 16 | 111 | 1.6 | 14.5 | 0.23 | 0.28 | 0.28 | 90 | 1004.9 |
| 20260506170057 | 16 | 212 | 1.6 | 8.0 | 0.23 | 0.25 | 0.25 | 90 | 1005.3 |
| 20260506164558 | 16 | 173 | 1.6 | 8.0 | 0.18 | 0.18 | 0.18 | 89 | 1005.8 |
| 20260506163056 | 16 | 198 | 0.0 | 8.0 | 0.10 | 0.10 | 0.10 | 88 | 1006.0 |
| 20260506161547 | 16 | 204 | 0.0 | 8.0 | 0.05 | 0.05 | 0.05 | 86 | 1005.8 |
| 20260506160052 | 17 | 198 | 4.8 | 16.1 | 0.03 | 0.03 | 0.03 | 85 | 1006.1 |
| 20260506154543 | 17 | 117 | 0.0 | 14.5 | 0.00 | 0.00 | 0.00 | 83 | 1006.1 |
| 20260506153040 | 17 | 246 | 3.2 | 11.3 | 0.00 | 0.00 | 0.00 | 81 | 1006.2 |
| 20260506151540 | 17 | 148 | 4.8 | 17.7 | 0.00 | 0.00 | 0.00 | 79 | 1006.3 |
| 20260506150043 | 18 | 221 | 0.0 | 14.5 | 0.00 | 0.00 | 0.00 | 79 | 1006.5 |
| 20260506144537 | 17 | 215 | 6.4 | 11.3 | 0.00 | 0.00 | 0.00 | 78 | 1006.6 |
| 20260506143039 | 18 | 226 | 3.2 | 12.9 | 0.00 | 0.00 | 0.00 | 78 | 1006.7 |
| 20260506141541 | 18 | 153 | 6.4 | 16.1 | 0.00 | 0.00 | 0.00 | 77 | 1006.6 |
| 20260506140034 | 18 | 234 | 6.4 | 12.9 | 0.00 | 0.00 | 0.00 | 78 | 1006.7 |
| 20260506134532 | 17 | 219 | 0.0 | 6.4 | 0.00 | 0.00 | 0.00 | 79 | 1006.4 |
| 20260506133034 | 17 | 178 | 4.8 | 12.9 | 0.00 | 0.00 | 0.00 | 78 | 1006.3 |
| 20260506131531 | 17 | 218 | 1.6 | 14.5 | 0.00 | 0.00 | 0.00 | 80 | 1006.3 |
| 20260506130033 | 17 | 262 | 1.6 | 14.5 | 0.00 | 0.00 | 0.00 | 80 | 1006.3 |
| 20260506124531 | 17 | 269 | 4.8 | 11.3 | 0.00 | 0.00 | 0.00 | 81 | 1006.8 |
| 20260506123030 | 17 | 217 | 1.6 | 16.1 | 0.00 | 0.00 | 0.00 | 81 | 1006.8 |
| 20260506121530 | 16 | 227 | 6.4 | 14.5 | 0.00 | 0.00 | 0.00 | 81 | 1007.1 |
| 20260506120048 | 16 | 243 | 3.2 | 16.1 | 0.00 | 0.00 | 0.00 | 82 | 1007.0 |
| 20260506114532 | 16 | 218 | 4.8 | 17.7 | 0.00 | 0.00 | 0.00 | 81 | 1006.9 |
| 20260506113026 | 16 | 184 | 4.8 | 16.1 | 0.00 | 0.00 | 0.00 | 81 | 1006.8 |
| 20260506111526 | 16 | 223 | 6.4 | 17.7 | 0.00 | 0.00 | 0.00 | 81 | 1006.8 |
| 20260506110029 | 16 | 184 | 3.2 | 11.3 | 0.00 | 0.00 | 0.00 | 80 | 1006.8 |
| 20260506104536 | 16 | 176 | 1.6 | 14.5 | 0.00 | 0.00 | 0.00 | 80 | 1006.8 |
| 20260506103037 | 16 | 164 | 4.8 | 17.7 | 0.00 | 0.00 | 0.00 | 79 | 1006.9 |
| 20260506101522 | 16 | 210 | 3.2 | 12.9 | 0.00 | 0.00 | 0.00 | 79 | 1006.7 |
| 20260506100022 | 16 | 259 | 3.2 | 12.9 | 0.00 | 0.00 | 0.00 | 79 | 1006.6 |
| 20260506094519 | 16 | 224 | 3.2 | 14.5 | 0.00 | 0.00 | 0.00 | 78 | 1006.3 |
| 20260506093022 | 16 | 155 | 1.6 | 8.0 | 0.00 | 0.00 | 0.00 | 77 | 1006.4 |
| 20260506091518 | 16 | 190 | 3.2 | 11.3 | 0.00 | 0.00 | 0.00 | 76 | 1006.2 |
| 20260506090015 | 16 | 242 | 4.8 | 12.9 | 0.00 | 0.00 | 0.00 | 75 | 1006.5 |
| 20260506084528 | 16 | 238 | 0.0 | 14.5 | 0.00 | 0.00 | 0.00 | 73 | 1006.6 |
| 20260506083014 | 16 | 174 | 0.0 | 8.0 | 0.00 | 0.00 | 0.00 | 73 | 1006.6 |
| 20260506081515 | 16 | 269 | 3.2 | 9.7 | 0.00 | 0.00 | 0.00 | 76 | 1006.5 |
| 20260506073007 | 16 | 231 | 0.0 | 4.8 | 0.00 | 0.00 | 0.00 | 74 | 1006.7 |
| 20260506071503 | 16 | 210 | 0.0 | 8.0 | 0.00 | 0.00 | 0.00 | 74 | 1006.8 |
| 20260506061556 | 17 | 144 | 1.6 | 9.7 | 0.00 | 0.00 | 0.00 | 69 | 1007.1 |
| 20260506044542 | 19 | 323 | 0.0 | 4.8 | 0.00 | 0.00 | 0.00 | 62 | 1007.3 |
| 20260506043044 | 19 | 134 | 1.6 | 11.3 | 0.00 | 0.00 | 0.00 | 61 | 1007.0 |
| 20260506041537 | 20 | 229 | 1.6 | 8.0 | 0.00 | 0.00 | 0.00 | 59 | 1007.0 |
| 20260506040037 | 20 | 155 | 3.2 | 12.9 | 0.00 | 0.00 | 0.00 | 58 | 1006.9 |
| 20260506034534 | 20 | 144 | 0.0 | 6.4 | 0.00 | 0.00 | 0.00 | 56 | 1006.8 |
| 20260506033033 | 21 | 329 | 0.0 | 9.7 | 0.00 | 0.00 | 0.00 | 54 | 1006.9 |
| 20260506031540 | 21 | 148 | 4.8 | 16.1 | 0.00 | 0.00 | 0.00 | 52 | 1006.8 |
| 20260506030032 | 21 | 171 | 1.6 | 16.1 | 0.00 | 0.00 | 0.00 | 53 | 1006.8 |
| 20260506024536 | 21 | 213 | 0.0 | 6.4 | 0.00 | 0.00 | 0.00 | 54 | 1006.7 |
| 20260506023050 | 21 | 183 | 1.6 | 9.7 | 0.00 | 0.00 | 0.00 | 55 | 1006.9 |
| 20260506021555 | 21 | 172 | 1.6 | 16.1 | 0.00 | 0.00 | 0.00 | 54 | 1006.9 |
| 20260506020030 | 21 | 198 | 1.6 | 16.1 | 0.00 | 0.00 | 0.00 | 54 | 1006.9 |
| 20260506014529 | 21 | 222 | 4.8 | 11.3 | 0.00 | 0.00 | 0.00 | 54 | 1006.7 |
| 20260506013034 | 21 | 205 | 3.2 | 11.3 | 0.00 | 0.00 | 0.00 | 54 | 1006.6 |
| 20260506011529 | 21 | 219 | 3.2 | 6.4 | 0.00 | 0.00 | 0.00 | 53 | 1006.5 |
| 20260506010029 | 22 | 222 | 1.6 | 17.7 | 0.00 | 0.00 | 0.00 | 53 | 1006.3 |
| 20260506004529 | 22 | 247 | 0.0 | 16.1 | 0.00 | 0.00 | 0.00 | 53 | 1006.1 |
| 20260506003027 | 22 | 211 | 1.6 | 6.4 | 0.00 | 0.00 | 0.00 | 51 | 1005.9 |
| 20260506001526 | 23 | 221 | 1.6 | 12.9 | 0.00 | 0.00 | 0.00 | 50 | 1005.7 |
| 20260506000026 | 23 | 232 | 3.2 | 8.0 | 0.00 | 0.00 | 0.00 | 49 | 1005.5 |
| 20260505234526 | 23 | 193 | 0.0 | 4.8 | 0.00 | 0.00 | 0.00 | 48 | 1005.4 |
| 20260505233027 | 23 | 169 | 1.6 | 8.0 | 0.00 | 0.00 | 0.00 | 46 | 1005.1 |
| 20260505231538 | 23 | 225 | 3.2 | 17.7 | 0.00 | 0.00 | 0.00 | 45 | 1004.9 |
| 20260505230026 | 24 | 227 | 9.7 | 22.5 | 0.00 | 0.00 | 0.00 | 44 | 1004.6 |
| 20260505224523 | 24 | 213 | 4.8 | 14.5 | 0.00 | 0.00 | 0.00 | 44 | 1004.4 |
| 20260505223023 | 25 | 261 | 4.8 | 27.4 | 0.00 | 0.00 | 0.00 | 44 | 1004.3 |
| 20260505221523 | 25 | 163 | 4.8 | 19.3 | 0.00 | 0.00 | 0.00 | 44 | 1004.1 |
| 20260505220024 | 25 | 261 | 6.4 | 22.5 | 0.00 | 0.00 | 0.00 | 42 | 1004.0 |
| 20260505214522 | 26 | 209 | 6.4 | 17.7 | 0.00 | 0.00 | 0.00 | 41 | 1003.9 |
| 20260505213033 | 26 | 305 | 11.3 | 40.2 | 0.00 | 0.00 | 0.00 | 33 | 1003.7 |
| 20260505211520 | 26 | 225 | 4.8 | 22.5 | 0.00 | 0.00 | 0.00 | 36 | 1003.7 |
| 20260505210019 | 26 | 241 | 9.7 | 32.2 | 0.00 | 0.00 | 0.00 | 36 | 1003.6 |
| 20260505204519 | 28 | 209 | 11.3 | 40.2 | 0.00 | 0.00 | 0.00 | 34 | 1003.8 |
| 20260505203028 | 27 | 297 | 12.9 | 30.6 | 0.00 | 0.00 | 0.00 | 32 | 1003.9 |